Le nostre stazioni meteo in Italia

Pubblicità
Il mio iltempo24.it
Paganella, Italia (16022): Temperatura & dewpoint: 13.06.2019 01:00:00 - 19.06.2019 01:00:00 (CEST)Paganella, Italia (16022): velocità del vento: 13.06.2019 01:00:00 - 19.06.2019 01:00:00 (CEST)Paganella, Italia (16022): direzione del vento: 13.06.2019 01:00:00 - 19.06.2019 01:00:00 (CEST)Paganella, Italia (16022): visibility: 13.06.2019 01:00:00 - 19.06.2019 01:00:00 (CEST)Paganella, Italia (16022): ore di luce: 13.06.2019 01:00:00 - 19.06.2019 01:00:00 (CEST)
Data & Tempo tt [°C] td [°C] ff [km/h] ff [kn] dd vv [km] sd [min]
19.06.2019 01:00:00 10,6 10,3 21 11 SO - -
19.06.2019 00:00:00 10,8 10,5 21 11 SO - -
18.06.2019 23:00:00 11,0 10,7 22 12 SSO - -
18.06.2019 22:00:00 11,4 10,8 22 12 SO - 0
18.06.2019 21:00:00 11,8 11,0 26 14 SO - 0
18.06.2019 20:00:00 14,2 10,0 24 13 SO 0,1 54
18.06.2019 19:00:00 14,8 9,6 24 13 SO 30 24
18.06.2019 18:00:00 13,0 7,2 22 12 SO 30 0
18.06.2019 17:00:00 14,3 7,1 28 15 SO 25 0
18.06.2019 16:00:00 14,0 8,6 13 7 S 25 0
18.06.2019 15:00:00 17,0 9,2 15 8 SSO 30 42
18.06.2019 14:00:00 14,5 8,5 18 10 SSO 30 42
18.06.2019 13:00:00 14,0 9,2 0 0 N 30 6
18.06.2019 12:00:00 14,7 9,1 0 0 N 30 60
18.06.2019 11:00:00 15,0 8,0 0 0 N 20 60
18.06.2019 10:00:00 13,6 8,2 4 2 N 20 60
18.06.2019 09:00:00 12,6 8,3 5 3 N 30 24
18.06.2019 08:00:00 11,2 7,5 5 3 N 25 18
18.06.2019 07:00:00 10,0 6,2 0 0 N 15 18
18.06.2019 06:00:00 10,0 8,4 0 0 N 15 0
18.06.2019 05:00:00 10,0 8,8 0 0 N - -
18.06.2019 04:00:00 10,0 8,8 0 0 N - -
18.06.2019 03:00:00 10,0 9,6 0 0 N - -
18.06.2019 02:00:00 10,0 10,0 15 8 SO - -
18.06.2019 01:00:00 10,0 10,0 22 12 SO - -
18.06.2019 00:00:00 10,0 9,6 26 14 SO 10 -
17.06.2019 23:00:00 10,4 9,8 18 10 OSO 20 -
17.06.2019 22:00:00 10,6 9,8 22 12 OSO 30 -
17.06.2019 21:00:00 12,0 9,2 21 11 OSO 20 0
17.06.2019 20:00:00 13,8 10,6 13 7 OSO 20 0
17.06.2019 19:00:00 15,2 11,0 15 8 OSO 50 0
17.06.2019 18:00:00 16,0 9,2 18 10 OSO 50 18
17.06.2019 17:00:00 17,4 9,6 18 10 SO 50 60
17.06.2019 16:00:00 18,0 9,1 18 10 OSO 50 60
17.06.2019 15:00:00 17,2 8,1 11 6 SO 30 60
17.06.2019 14:00:00 16,4 9,1 11 6 N 60 60
17.06.2019 13:00:00 15,2 8,7 11 6 SO 50 60
17.06.2019 12:00:00 14,8 8,3 9 5 N 50 60
17.06.2019 11:00:00 14,0 7,5 9 5 N 40 60
17.06.2019 10:00:00 12,0 7,7 8 4 N 40 18
17.06.2019 09:00:00 11,6 7,3 8 4 N 30 18
17.06.2019 08:00:00 10,4 6,4 5 3 N 40 24
17.06.2019 07:00:00 9,3 4,9 5 3 N 40 0
17.06.2019 06:00:00 9,0 3,8 8 4 N 40 0
17.06.2019 05:00:00 8,8 4,2 8 4 N 20 -
17.06.2019 04:00:00 8,8 4,2 13 7 N 50 -
17.06.2019 03:00:00 7,8 3,5 11 6 N 50 -
17.06.2019 02:00:00 7,2 3,1 11 6 N 50 -
17.06.2019 01:00:00 8,6 5,0 15 8 N 50 -
17.06.2019 00:00:00 8,9 5,3 15 8 N 50 -
16.06.2019 23:00:00 9,2 4,6 11 6 N 50 -
16.06.2019 22:00:00 10,2 5,2 5 3 N 35 0
16.06.2019 21:00:00 12,0 6,3 9 5 N 35 0
16.06.2019 20:00:00 14,4 7,9 9 5 N 50 0
16.06.2019 19:00:00 15,0 7,3 9 5 OSO 35 24
16.06.2019 18:00:00 16,4 4,4 11 6 OSO 35 30
16.06.2019 17:00:00 17,0 5,9 11 6 OSO 20 60
16.06.2019 16:00:00 17,2 4,5 11 6 SO 30 60
16.06.2019 15:00:00 17,0 5,9 18 10 SO 20 60
16.06.2019 14:00:00 16,4 6,5 11 6 SO 20 48
16.06.2019 13:00:00 15,4 5,9 0 0 N 50 60
16.06.2019 12:00:00 14,6 6,9 9 5 N 60 60
16.06.2019 11:00:00 13,2 6,8 9 5 N 40 60
16.06.2019 10:00:00 13,6 7,2 9 5 N 35 54
16.06.2019 09:00:00 13,2 6,1 5 3 N 30 60
16.06.2019 08:00:00 12,6 7,7 9 5 NNE 30 60
16.06.2019 07:00:00 11,0 6,7 9 5 SO 30 60
16.06.2019 06:00:00 10,0 9,2 9 5 OSO 10 0
16.06.2019 05:00:00 10,0 9,2 18 10 SO 10 -
16.06.2019 04:00:00 10,0 9,2 18 10 SO 10 -
16.06.2019 03:00:00 10,0 3,3 15 8 SO 50 -
16.06.2019 02:00:00 9,9 7,2 15 8 SO 50 -
16.06.2019 01:00:00 10,0 8,9 18 10 SO 50 -
16.06.2019 00:00:00 10,4 6,6 22 12 SO 40 -
15.06.2019 23:00:00 10,8 8,4 26 14 SO 50 -
15.06.2019 22:00:00 11,4 7,1 22 12 SO 50 0
15.06.2019 21:00:00 - - - - - - -
15.06.2019 20:00:00 15,0 11,2 26 14 SO 40 42
15.06.2019 19:00:00 17,0 10,8 24 13 SSO 40 60
15.06.2019 18:00:00 17,0 10,4 22 12 SO 30 60
15.06.2019 17:00:00 17,8 10,7 22 12 SO 30 54
15.06.2019 16:00:00 17,6 10,2 26 14 SSO 40 60
15.06.2019 15:00:00 17,6 9,7 28 15 SSO 50 60
15.06.2019 14:00:00 17,0 9,2 18 10 SSO 40 60
15.06.2019 13:00:00 16,2 8,7 26 14 SO 40 54
15.06.2019 12:00:00 15,5 8,5 22 12 SO 40 0
15.06.2019 11:00:00 13,4 7,4 26 14 SSO 45 0
15.06.2019 10:00:00 13,0 7,0 24 13 SO 40 0
15.06.2019 09:00:00 12,0 6,3 24 13 SSO 50 6
15.06.2019 08:00:00 10,4 4,8 24 13 SSO 50 36
15.06.2019 07:00:00 11,0 5,1 24 13 SSO 50 18
15.06.2019 06:00:00 10,4 6,0 37 20 SO 30 0
15.06.2019 05:00:00 10,6 6,9 34 18 SO 30 -
15.06.2019 04:00:00 11,0 6,9 26 14 S 10 -
15.06.2019 03:00:00 11,0 7,1 18 10 SSO 10 -
15.06.2019 02:00:00 11,6 7,5 22 12 S 10 -
15.06.2019 01:00:00 11,6 6,7 41 22 S 10 -
15.06.2019 00:00:00 12,0 0,4 29 16 S 20 -
14.06.2019 23:00:00 12,1 2,3 22 12 SSO 40 -
14.06.2019 22:00:00 12,8 2,1 22 12 SSO 40 0
14.06.2019 21:00:00 14,6 2,2 24 13 S 50 0
14.06.2019 20:00:00 16,0 2,4 22 12 S 50 24
14.06.2019 19:00:00 16,8 3,1 18 10 S 60 18
14.06.2019 18:00:00 17,4 1,8 24 13 S 50 18
14.06.2019 17:00:00 18,4 1,4 18 10 SO 60 60
14.06.2019 16:00:00 18,6 1,6 18 10 SSO 70 60
14.06.2019 15:00:00 18,2 1,3 18 10 SSO 70 60
14.06.2019 14:00:00 17,8 0,9 18 10 SSO 70 60
14.06.2019 13:00:00 16,5 -0,2 18 10 SSO 70 60
14.06.2019 12:00:00 15,5 -0,3 15 8 SO 70 60
14.06.2019 11:00:00 14,6 -1,9 11 6 SO 60 60
14.06.2019 10:00:00 13,6 -5,0 15 8 SO 60 60
14.06.2019 09:00:00 12,4 -7,1 18 10 OSO 60 60
14.06.2019 08:00:00 11,6 -6,3 22 12 OSO 60 60
14.06.2019 07:00:00 9,6 -9,5 15 8 S 60 18
14.06.2019 06:00:00 9,0 -9,0 15 8 SSO 60 0
14.06.2019 05:00:00 7,8 -2,5 15 8 SO 60 -
14.06.2019 04:00:00 7,9 -2,7 15 8 SSO 60 -
14.06.2019 03:00:00 8,0 -3,8 18 10 SSO 60 -
14.06.2019 02:00:00 8,0 -5,4 18 10 SSO 60 -
14.06.2019 01:00:00 8,4 -6,6 15 8 S 50 -
14.06.2019 00:00:00 8,6 -5,6 18 10 S 60 -
13.06.2019 23:00:00 8,8 -5,8 16 9 S 60 -
13.06.2019 22:00:00 9,2 -5,1 18 10 S 50 0
13.06.2019 21:00:00 10,4 -3,7 18 10 S 60 12
13.06.2019 20:00:00 12,6 -2,8 22 12 S 60 60
13.06.2019 19:00:00 13,6 -2,8 22 12 S 60 60
13.06.2019 18:00:00 14,0 -2,9 26 14 SSO 60 60
13.06.2019 17:00:00 14,2 -4,0 29 16 SO 60 60
13.06.2019 16:00:00 14,4 -3,0 29 16 SO 60 60
13.06.2019 15:00:00 14,0 -3,3 29 16 SSO 60 60
13.06.2019 14:00:00 13,8 -3,5 22 12 SSO 60 60
13.06.2019 13:00:00 13,8 -13,2 26 14 SSO 50 60
13.06.2019 12:00:00 12,2 -6,7 15 8 S 50 60
13.06.2019 11:00:00 11,8 -2,1 11 6 S 50 60
13.06.2019 10:00:00 11,2 -0,3 11 6 S 50 60
13.06.2019 09:00:00 11,0 -2,4 11 6 S 60 60
13.06.2019 08:00:00 10,0 -0,5 13 7 S 40 60
13.06.2019 07:00:00 8,0 -0,7 15 8 S 40 12
13.06.2019 06:00:00 7,4 1,1 18 10 SSO 30 0
13.06.2019 05:00:00 7,6 0,6 18 10 S 20 -
13.06.2019 04:00:00 7,8 4,2 22 12 SSO 40 -
13.06.2019 03:00:00 8,0 4,6 15 8 S 30 -
13.06.2019 02:00:00 8,0 6,6 15 8 SSO 20 -
13.06.2019 01:00:00 8,2 6,3 15 8 S 30 -

tt = Temperatura
td = dewpoint
ff = velocità del vento
dd = direzione del vento
vv = visibility
sd = ore di luce

Stazioni seguenti

WeatherPro
AMSI
MeteoEarth